Time,TemperatureF,DewpointF,PressureIn,WindDirection,WindDirectionDegrees,WindSpeedMPH,WindSpeedGustMPH,Humidity,HourlyPrecipIn,Conditions,Clouds,dailyrainin,SolarRadiationWatts/m^2,SoftwareType,DateUTC
2013-03-04 00:01:00,44.8,34.1,29.62,SE,135,7.0,8.0,66,0.00,,,0.00,0,Wunderground v.1.15,2013-03-04 06:01:00,
2013-03-04 00:07:00,45.2,33.7,29.62,SE,135,8.0,8.0,64,0.00,,,0.00,0,Wunderground v.1.15,2013-03-04 06:07:00,
2013-03-04 00:13:00,45.2,33.7,29.62,SE,137,7.0,10.0,64,0.00,,,0.00,0,Wunderground v.1.15,2013-03-04 06:13:00,
2013-03-04 00:19:00,45.3,33.8,29.62,SE,146,7.0,9.0,64,0.00,,,0.00,0,Wunderground v.1.15,2013-03-04 06:19:00,
2013-03-04 00:27:00,45.4,33.9,29.62,SE,146,8.0,9.0,64,0.00,,,0.00,0,Wunderground v.1.15,2013-03-04 06:27:00,
2013-03-04 00:33:00,45.8,33.9,29.62,SE,137,8.0,9.0,63,0.00,,,0.00,0,Wunderground v.1.15,2013-03-04 06:33:00,
2013-03-04 00:39:00,45.1,33.6,29.61,SE,133,8.0,8.0,64,0.00,,,0.00,0,Wunderground v.1.15,2013-03-04 06:39:00,
2013-03-04 00:45:00,45.0,33.9,29.61,SE,130,8.0,13.0,65,0.00,,,0.00,0,Wunderground v.1.15,2013-03-04 06:45:00,
2013-03-04 00:51:00,45.3,33.8,29.61,SE,129,8.0,8.0,64,0.00,,,0.00,0,Wunderground v.1.15,2013-03-04 06:51:00,
2013-03-04 00:57:00,45.2,33.7,29.61,SE,129,8.0,9.0,64,0.00,,,0.00,0,Wunderground v.1.15,2013-03-04 06:57:00,
2013-03-04 01:05:00,45.0,33.9,29.61,SE,129,8.0,9.0,65,0.00,,,0.00,0,Wunderground v.1.15,2013-03-04 07:05:00,
2013-03-04 01:11:00,44.7,34.0,29.60,SE,127,7.0,8.0,66,0.00,,,0.00,0,Wunderground v.1.15,2013-03-04 07:11:00,
2013-03-04 01:17:00,44.6,33.9,29.61,SE,127,6.0,6.0,66,0.00,,,0.00,0,Wunderground v.1.15,2013-03-04 07:17:00,
2013-03-04 01:23:00,45.0,33.9,29.61,SE,127,4.0,6.0,65,0.00,,,0.00,0,Wunderground v.1.15,2013-03-04 07:23:00,
2013-03-04 01:29:00,45.1,34.0,29.61,SE,127,4.0,6.0,65,0.00,,,0.00,0,Wunderground v.1.15,2013-03-04 07:29:00,
2013-03-04 01:35:00,44.7,33.6,29.60,SE,127,6.0,7.0,65,0.00,,,0.00,0,Wunderground v.1.15,2013-03-04 07:35:00,
2013-03-04 01:41:00,44.5,33.8,29.60,SE,127,7.0,8.0,66,0.00,,,0.00,0,Wunderground v.1.15,2013-03-04 07:41:00,
2013-03-04 01:47:00,44.6,33.9,29.60,SE,127,7.0,8.0,66,0.00,,,0.00,0,Wunderground v.1.15,2013-03-04 07:47:00,
2013-03-04 01:53:00,44.6,33.9,29.60,SE,127,7.0,9.0,66,0.00,,,0.00,0,Wunderground v.1.15,2013-03-04 07:53:00,
2013-03-04 01:59:00,44.6,33.9,29.60,SE,127,7.0,9.0,66,0.00,,,0.00,0,Wunderground v.1.15,2013-03-04 07:59:00,
2013-03-04 02:05:00,44.5,33.8,29.60,SE,127,7.0,9.0,66,0.00,,,0.00,0,Wunderground v.1.15,2013-03-04 08:05:00,
2013-03-04 02:11:00,44.9,34.2,29.60,SE,127,5.0,9.0,66,0.00,,,0.00,0,Wunderground v.1.15,2013-03-04 08:11:00,
2013-03-04 02:17:00,45.0,34.3,29.60,SE,127,3.0,9.0,66,0.00,,,0.00,0,Wunderground v.1.15,2013-03-04 08:17:00,
2013-03-04 02:23:00,44.5,33.8,29.60,SE,127,4.0,9.0,66,0.00,,,0.00,0,Wunderground v.1.15,2013-03-04 08:23:00,
2013-03-04 02:29:00,43.8,33.9,29.60,SE,127,4.0,9.0,68,0.00,,,0.00,0,Wunderground v.1.15,2013-03-04 08:29:00,
2013-03-04 02:35:00,44.8,35.6,29.60,SE,127,3.0,9.0,70,0.00,,,0.00,0,Wunderground v.1.15,2013-03-04 08:35:00,
2013-03-04 02:41:00,44.8,34.1,29.59,SE,127,3.0,9.0,66,0.00,,,0.00,0,Wunderground v.1.15,2013-03-04 08:41:00,
2013-03-04 02:47:00,44.2,33.9,29.59,SE,127,5.0,9.0,67,0.00,,,0.00,0,Wunderground v.1.15,2013-03-04 08:47:00,
2013-03-04 02:53:00,43.8,33.9,29.58,SE,127,5.0,9.0,68,0.00,,,0.00,0,Wunderground v.1.15,2013-03-04 08:53:00,
2013-03-04 02:59:00,43.7,33.8,29.58,SE,127,3.0,9.0,68,0.00,,,0.00,0,Wunderground v.1.15,2013-03-04 08:59:00,
2013-03-04 03:05:00,43.5,34.0,29.58,SE,127,3.0,9.0,69,0.00,,,0.00,0,Wunderground v.1.15,2013-03-04 09:05:00,
2013-03-04 03:11:00,43.5,33.6,29.58,SE,127,4.0,9.0,68,0.00,,,0.00,0,Wunderground v.1.15,2013-03-04 09:11:00,
2013-03-04 03:17:00,42.3,32.8,29.58,SE,127,4.0,9.0,69,0.00,,,0.00,0,Wunderground v.1.15,2013-03-04 09:17:00,
2013-03-04 03:23:00,42.0,33.3,29.58,SE,127,4.0,9.0,71,0.00,,,0.00,0,Wunderground v.1.15,2013-03-04 09:23:00,
2013-03-04 03:29:00,43.4,33.9,29.58,SE,127,3.0,9.0,69,0.00,,,0.00,0,Wunderground v.1.15,2013-03-04 09:29:00,
2013-03-04 03:35:00,43.7,33.8,29.58,SE,127,4.0,9.0,68,0.00,,,0.00,0,Wunderground v.1.15,2013-03-04 09:35:00,
2013-03-04 03:41:00,43.5,33.6,29.58,SE,127,4.0,9.0,68,0.00,,,0.00,0,Wunderground v.1.15,2013-03-04 09:41:00,
2013-03-04 03:47:00,43.8,33.9,29.57,SE,127,4.0,9.0,68,0.00,,,0.00,0,Wunderground v.1.15,2013-03-04 09:47:00,
2013-03-04 03:53:00,43.4,33.5,29.57,SE,127,4.0,9.0,68,0.00,,,0.00,0,Wunderground v.1.15,2013-03-04 09:53:00,
2013-03-04 03:59:00,41.5,32.4,29.57,SE,127,4.0,9.0,70,0.00,,,0.00,0,Wunderground v.1.15,2013-03-04 09:59:00,
2013-03-04 04:05:00,40.8,32.5,29.57,SE,127,4.0,9.0,72,0.00,,,0.00,0,Wunderground v.1.15,2013-03-04 10:05:00,
2013-03-04 04:11:00,40.6,32.3,29.57,SE,127,4.0,9.0,72,0.00,,,0.00,0,Wunderground v.1.15,2013-03-04 10:11:00,
2013-03-04 04:17:00,39.8,31.8,29.58,SE,127,4.0,9.0,73,0.00,,,0.00,0,Wunderground v.1.15,2013-03-04 10:17:00,
2013-03-04 04:23:00,39.2,31.6,29.57,SE,127,4.0,9.0,74,0.00,,,0.00,0,Wunderground v.1.15,2013-03-04 10:23:00,
2013-03-04 04:29:00,39.1,31.8,29.57,SE,127,5.0,9.0,75,0.00,,,0.00,0,Wunderground v.1.15,2013-03-04 10:29:00,
2013-03-04 04:35:00,40.3,32.3,29.57,SE,127,4.0,9.0,73,0.00,,,0.00,0,Wunderground v.1.15,2013-03-04 10:35:00,
2013-03-04 04:41:00,39.9,31.9,29.57,SE,127,4.0,9.0,73,0.00,,,0.00,0,Wunderground v.1.15,2013-03-04 10:41:00,
2013-03-04 04:47:00,39.2,31.6,29.58,SE,127,4.0,9.0,74,0.00,,,0.00,0,Wunderground v.1.15,2013-03-04 10:47:00,
2013-03-04 04:53:00,38.6,31.4,29.58,SE,127,4.0,9.0,75,0.00,,,0.00,0,Wunderground v.1.15,2013-03-04 10:53:00,
2013-03-04 04:59:00,38.0,30.8,29.57,SE,127,5.0,9.0,75,0.00,,,0.00,0,Wunderground v.1.15,2013-03-04 10:59:00,
2013-03-04 05:05:00,37.6,31.0,29.58,SE,127,5.0,9.0,77,0.00,,,0.00,0,Wunderground v.1.15,2013-03-04 11:05:00,
2013-03-04 05:11:00,38.6,32.0,29.58,SE,127,5.0,9.0,77,0.00,,,0.00,0,Wunderground v.1.15,2013-03-04 11:11:00,
2013-03-04 05:17:00,38.7,31.8,29.58,SE,127,4.0,9.0,76,0.00,,,0.00,0,Wunderground v.1.15,2013-03-04 11:17:00,
2013-03-04 05:23:00,39.0,32.1,29.58,SE,127,4.0,9.0,76,0.00,,,0.00,0,Wunderground v.1.15,2013-03-04 11:23:00,
2013-03-04 05:29:00,38.5,31.3,29.59,SE,127,4.0,9.0,75,0.00,,,0.00,0,Wunderground v.1.15,2013-03-04 11:29:00,
2013-03-04 05:35:00,38.5,31.6,29.59,SE,127,3.0,9.0,76,0.00,,,0.00,0,Wunderground v.1.15,2013-03-04 11:35:00,
2013-03-04 05:41:00,39.2,31.9,29.60,ESE,123,4.0,9.0,75,0.00,,,0.00,0,Wunderground v.1.15,2013-03-04 11:41:00,
2013-03-04 05:47:00,39.8,32.2,29.60,ESE,108,6.0,9.0,74,0.00,,,0.00,0,Wunderground v.1.15,2013-03-04 11:47:00,
2013-03-04 05:53:00,39.9,32.3,29.60,ESE,108,7.0,9.0,74,0.00,,,0.00,0,Wunderground v.1.15,2013-03-04 11:53:00,
2013-03-04 05:59:00,39.7,32.1,29.60,ESE,106,7.0,9.0,74,0.00,,,0.00,0,Wunderground v.1.15,2013-03-04 11:59:00,
2013-03-04 06:05:00,38.7,31.5,29.60,ESE,106,6.0,9.0,75,0.00,,,0.00,0,Wunderground v.1.15,2013-03-04 12:05:00,
2013-03-04 06:11:00,38.6,31.7,29.60,ESE,104,6.0,9.0,76,0.00,,,0.00,0,Wunderground v.1.15,2013-03-04 12:11:00,
2013-03-04 06:17:00,38.8,31.9,29.60,East,99,7.0,9.0,76,0.00,,,0.00,0,Wunderground v.1.15,2013-03-04 12:17:00,
2013-03-04 06:23:00,38.0,31.1,29.61,East,98,7.0,9.0,76,0.00,,,0.00,0,Wunderground v.1.15,2013-03-04 12:23:00,
2013-03-04 06:29:00,38.6,32.0,29.61,East,98,7.0,9.0,77,0.00,,,0.00,0,Wunderground v.1.15,2013-03-04 12:29:00,
2013-03-04 06:35:00,39.0,31.7,29.61,East,93,6.0,9.0,75,0.00,,,0.00,0,Wunderground v.1.15,2013-03-04 12:35:00,
2013-03-04 06:41:00,39.1,31.8,29.62,NE,49,8.0,10.0,75,0.00,,,0.00,0,Wunderground v.1.15,2013-03-04 12:41:00,
2013-03-04 06:47:00,38.9,31.6,29.61,NE,41,8.0,9.0,75,0.00,,,0.00,0,Wunderground v.1.15,2013-03-04 12:47:00,
2013-03-04 06:53:00,37.9,30.7,29.62,NE,35,7.0,9.0,75,0.00,,,0.00,0,Wunderground v.1.15,2013-03-04 12:53:00,
2013-03-04 06:59:00,36.8,30.3,29.62,NNE,32,7.0,8.0,77,0.00,,,0.00,5,Wunderground v.1.15,2013-03-04 12:59:00,
2013-03-04 07:05:00,37.0,30.8,29.62,NNE,17,7.0,10.0,78,0.00,,,0.00,7,Wunderground v.1.15,2013-03-04 13:05:00,
2013-03-04 07:11:00,37.0,31.1,29.62,North,10,9.0,9.0,79,0.00,,,0.00,12,Wunderground v.1.15,2013-03-04 13:11:00,
2013-03-04 07:17:00,36.9,30.7,29.62,North,8,9.0,9.0,78,0.00,,,0.00,16,Wunderground v.1.15,2013-03-04 13:17:00,
2013-03-04 07:23:00,36.5,30.6,29.62,North,8,9.0,9.0,79,0.00,,,0.00,23,Wunderground v.1.15,2013-03-04 13:23:00,
2013-03-04 07:29:00,36.4,30.8,29.62,North,8,8.0,9.0,80,0.00,,,0.00,39,Wunderground v.1.15,2013-03-04 13:29:00,
2013-03-04 07:35:00,37.6,32.0,29.63,North,2,8.0,9.0,80,0.00,,,0.00,54,Wunderground v.1.15,2013-03-04 13:35:00,
2013-03-04 07:41:00,38.0,31.7,29.63,North,2,8.0,9.0,78,0.00,,,0.00,72,Wunderground v.1.15,2013-03-04 13:41:00,
2013-03-04 07:47:00,38.1,31.8,29.63,North,2,8.0,8.0,78,0.00,,,0.00,88,Wunderground v.1.15,2013-03-04 13:47:00,
2013-03-04 07:53:00,38.2,31.9,29.63,North,2,8.0,9.0,78,0.00,,,0.00,113,Wunderground v.1.15,2013-03-04 13:53:00,
2013-03-04 07:59:00,38.4,32.1,29.63,North,2,8.0,9.0,78,0.00,,,0.00,130,Wunderground v.1.15,2013-03-04 13:59:00,
2013-03-04 08:05:00,38.8,32.5,29.64,North,2,8.0,9.0,78,0.00,,,0.00,153,Wunderground v.1.15,2013-03-04 14:05:00,
2013-03-04 08:11:00,39.4,32.8,29.64,North,2,8.0,9.0,77,0.00,,,0.00,176,Wunderground v.1.15,2013-03-04 14:11:00,
2013-03-04 08:17:00,39.8,32.8,29.64,North,2,7.0,9.0,76,0.00,,,0.00,202,Wunderground v.1.15,2013-03-04 14:17:00,
2013-03-04 08:23:00,40.2,33.2,29.64,North,2,8.0,10.0,76,0.00,,,0.00,221,Wunderground v.1.15,2013-03-04 14:23:00,
2013-03-04 08:29:00,40.6,33.6,29.65,North,2,8.0,9.0,76,0.00,,,0.00,241,Wunderground v.1.15,2013-03-04 14:29:00,
2013-03-04 08:35:00,41.3,34.0,29.65,North,357,7.0,9.0,75,0.00,,,0.00,258,Wunderground v.1.15,2013-03-04 14:35:00,
2013-03-04 08:41:00,42.2,35.5,29.65,North,352,8.0,9.0,77,0.00,,,0.00,278,Wunderground v.1.15,2013-03-04 14:41:00,
2013-03-04 08:47:00,42.6,34.2,29.65,North,352,8.0,8.0,72,0.00,,,0.00,295,Wunderground v.1.15,2013-03-04 14:47:00,
2013-03-04 08:53:00,42.7,34.3,29.65,North,352,7.0,9.0,72,0.00,,,0.00,313,Wunderground v.1.15,2013-03-04 14:53:00,
2013-03-04 08:59:00,43.0,34.2,29.66,North,352,8.0,9.0,71,0.00,,,0.00,332,Wunderground v.1.15,2013-03-04 14:59:00,
2013-03-04 09:05:00,43.5,34.7,29.66,North,352,8.0,9.0,71,0.00,,,0.00,352,Wunderground v.1.15,2013-03-04 15:05:00,
2013-03-04 09:11:00,43.6,34.8,29.66,North,352,7.0,9.0,71,0.00,,,0.00,371,Wunderground v.1.15,2013-03-04 15:11:00,
2013-03-04 09:17:00,43.7,34.9,29.66,North,352,8.0,8.0,71,0.00,,,0.00,388,Wunderground v.1.15,2013-03-04 15:17:00,
2013-03-04 09:23:00,44.7,35.9,29.66,North,352,7.0,9.0,71,0.00,,,0.00,404,Wunderground v.1.15,2013-03-04 15:23:00,
2013-03-04 09:29:00,45.1,35.5,29.66,North,352,6.0,9.0,69,0.00,,,0.00,422,Wunderground v.1.15,2013-03-04 15:29:00,
2013-03-04 09:35:00,45.6,35.6,29.66,North,352,6.0,9.0,68,0.00,,,0.00,438,Wunderground v.1.15,2013-03-04 15:35:00,
2013-03-04 09:41:00,46.2,35.8,29.66,North,352,6.0,9.0,67,0.00,,,0.00,457,Wunderground v.1.15,2013-03-04 15:41:00,
2013-03-04 09:47:00,46.3,36.3,29.67,North,352,6.0,9.0,68,0.00,,,0.00,473,Wunderground v.1.15,2013-03-04 15:47:00,
2013-03-04 09:53:00,46.6,36.2,29.66,North,352,7.0,9.0,67,0.00,,,0.00,492,Wunderground v.1.15,2013-03-04 15:53:00,
2013-03-04 09:59:00,46.7,37.1,29.66,North,352,7.0,9.0,69,0.00,,,0.00,506,Wunderground v.1.15,2013-03-04 15:59:00,
2013-03-04 10:05:00,47.2,36.4,29.67,NNW,348,7.0,10.0,66,0.00,,,0.00,524,Wunderground v.1.15,2013-03-04 16:05:00,
2013-03-04 10:11:00,47.5,36.3,29.67,NNW,345,8.0,9.0,65,0.00,,,0.00,536,Wunderground v.1.15,2013-03-04 16:11:00,
2013-03-04 10:17:00,47.8,37.0,29.67,North,352,9.0,9.0,66,0.00,,,0.00,550,Wunderground v.1.15,2013-03-04 16:17:00,
2013-03-04 10:23:00,48.5,36.5,29.67,NNW,345,8.0,9.0,63,0.00,,,0.00,566,Wunderground v.1.15,2013-03-04 16:23:00,
2013-03-04 10:29:00,48.9,36.4,29.67,NNW,339,8.0,9.0,62,0.00,,,0.00,578,Wunderground v.1.15,2013-03-04 16:29:00,
2013-03-04 10:35:00,49.1,37.4,29.68,NNW,339,7.0,9.0,64,0.00,,,0.00,592,Wunderground v.1.15,2013-03-04 16:35:00,
2013-03-04 10:41:00,49.3,36.4,29.68,North,352,8.0,12.0,61,0.00,,,0.00,606,Wunderground v.1.15,2013-03-04 16:41:00,
2013-03-04 10:47:00,49.0,36.5,29.68,NW,314,12.0,12.0,62,0.00,,,0.00,622,Wunderground v.1.15,2013-03-04 16:47:00,
2013-03-04 10:55:00,48.9,36.4,29.68,North,357,15.0,22.0,62,0.00,,,0.00,631,Wunderground v.1.15,2013-03-04 16:55:00,
2013-03-04 11:01:00,48.5,36.5,29.68,NNW,345,15.0,17.0,63,0.00,,,0.00,645,Wunderground v.1.15,2013-03-04 17:01:00,
2013-03-04 11:07:00,48.3,36.3,29.68,NNW,333,16.0,16.0,63,0.00,,,0.00,652,Wunderground v.1.15,2013-03-04 17:07:00,
2013-03-04 11:13:00,48.3,35.9,29.68,NNW,334,17.0,22.0,62,0.00,,,0.00,657,Wunderground v.1.15,2013-03-04 17:13:00,
2013-03-04 11:19:00,47.7,35.7,29.69,NNW,339,19.0,19.0,63,0.00,,,0.00,668,Wunderground v.1.15,2013-03-04 17:19:00,
2013-03-04 11:25:00,46.9,35.7,29.69,NNW,344,18.0,20.0,65,0.00,,,0.00,682,Wunderground v.1.15,2013-03-04 17:25:00,
2013-03-04 11:31:00,46.6,35.8,29.69,NNW,338,17.0,21.0,66,0.00,,,0.00,684,Wunderground v.1.15,2013-03-04 17:31:00,
2013-03-04 11:37:00,46.5,36.5,29.69,North,352,17.0,19.0,68,0.00,,,0.00,698,Wunderground v.1.15,2013-03-04 17:37:00,
2013-03-04 11:43:00,46.4,36.4,29.69,NW,322,18.0,24.0,68,0.00,,,0.00,714,Wunderground v.1.15,2013-03-04 17:43:00,
2013-03-04 11:49:00,46.4,36.0,29.69,NNW,345,19.0,22.0,67,0.00,,,0.00,705,Wunderground v.1.15,2013-03-04 17:49:00,
2013-03-04 11:55:00,46.1,36.5,29.70,North,357,21.0,26.0,69,0.00,,,0.00,721,Wunderground v.1.15,2013-03-04 17:55:00,
2013-03-04 12:01:00,45.8,36.2,29.69,NNW,343,21.0,23.0,69,0.00,,,0.00,707,Wunderground v.1.15,2013-03-04 18:01:00,
2013-03-04 12:07:00,45.8,36.6,29.70,North,352,21.0,21.0,70,0.00,,,0.00,715,Wunderground v.1.15,2013-03-04 18:07:00,
2013-03-04 12:13:00,46.0,36.8,29.70,NNW,338,21.0,24.0,70,0.00,,,0.00,710,Wunderground v.1.15,2013-03-04 18:13:00,
2013-03-04 12:19:00,46.1,36.9,29.70,NNW,343,20.0,24.0,70,0.00,,,0.00,740,Wunderground v.1.15,2013-03-04 18:19:00,
2013-03-04 12:25:00,46.2,37.3,29.70,NNW,345,21.0,24.0,71,0.00,,,0.00,735,Wunderground v.1.15,2013-03-04 18:25:00,
2013-03-04 12:31:00,46.7,37.4,29.70,NNW,343,20.0,27.0,70,0.00,,,0.00,742,Wunderground v.1.15,2013-03-04 18:31:00,
2013-03-04 12:33:00,46.7,37.4,29.70,North,11,21.0,27.0,70,0.00,,,0.00,749,Wunderground v.1.15,2013-03-04 18:33:00,
2013-03-04 12:39:00,47.0,38.1,29.70,North,6,19.0,24.0,71,0.00,,,0.00,744,Wunderground v.1.15,2013-03-04 18:39:00,
2013-03-04 12:41:00,46.9,38.0,29.70,NNW,343,19.0,24.0,71,0.00,,,0.00,631,Wunderground v.1.15,2013-03-04 18:41:00,
2013-03-04 12:47:00,46.8,37.5,29.70,NNW,347,20.0,20.0,70,0.00,,,0.00,527,Wunderground v.1.15,2013-03-04 18:47:00,
2013-03-04 12:53:00,46.9,38.0,29.69,NW,326,20.0,20.0,71,0.00,,,0.00,738,Wunderground v.1.15,2013-03-04 18:53:00,
2013-03-04 12:59:00,47.1,38.5,29.69,NNW,347,19.0,20.0,72,0.00,,,0.00,735,Wunderground v.1.15,2013-03-04 18:59:00,
2013-03-04 13:05:00,47.2,38.6,29.69,NNW,330,17.0,22.0,72,0.00,,,0.00,747,Wunderground v.1.15,2013-03-04 19:05:00,
2013-03-04 13:11:00,47.4,38.5,29.68,NNW,343,18.0,20.0,71,0.00,,,0.00,763,Wunderground v.1.15,2013-03-04 19:11:00,
2013-03-04 13:17:00,47.2,38.6,29.69,NNW,334,21.0,21.0,72,0.00,,,0.00,754,Wunderground v.1.15,2013-03-04 19:17:00,
2013-03-04 13:23:00,47.2,39.0,29.69,North,352,21.0,24.0,73,0.00,,,0.00,738,Wunderground v.1.15,2013-03-04 19:23:00,
2013-03-04 13:29:00,47.1,38.9,29.69,North,9,20.0,21.0,73,0.00,,,0.00,788,Wunderground v.1.15,2013-03-04 19:29:00,
2013-03-04 13:35:00,47.0,38.4,29.68,NNW,335,20.0,21.0,72,0.00,,,0.00,772,Wunderground v.1.15,2013-03-04 19:35:00,
2013-03-04 13:41:00,47.4,38.8,29.68,NNE,13,19.0,21.0,72,0.00,,,0.00,722,Wunderground v.1.15,2013-03-04 19:41:00,
2013-03-04 13:47:00,47.5,38.9,29.69,NNW,342,18.0,22.0,72,0.00,,,0.00,657,Wunderground v.1.15,2013-03-04 19:47:00,
2013-03-04 13:53:00,47.5,38.9,29.69,NNW,342,19.0,22.0,72,0.00,,,0.00,729,Wunderground v.1.15,2013-03-04 19:53:00,
2013-03-04 13:59:00,47.7,38.8,29.69,NNW,345,20.0,21.0,71,0.00,,,0.00,710,Wunderground v.1.15,2013-03-04 19:59:00,
2013-03-04 14:05:00,47.8,39.6,29.69,NNW,345,20.0,24.0,73,0.00,,,0.00,717,Wunderground v.1.15,2013-03-04 20:05:00,
2013-03-04 14:11:00,47.5,39.3,29.69,North,357,21.0,23.0,73,0.00,,,0.00,729,Wunderground v.1.15,2013-03-04 20:11:00,
2013-03-04 14:17:00,47.6,39.4,29.69,NNW,333,20.0,20.0,73,0.00,,,0.00,770,Wunderground v.1.15,2013-03-04 20:17:00,
2013-03-04 14:23:00,47.2,38.6,29.70,NNW,337,19.0,24.0,72,0.00,,,0.00,555,Wunderground v.1.15,2013-03-04 20:23:00,
2013-03-04 14:29:00,47.4,38.5,29.70,NW,318,18.0,22.0,71,0.00,,,0.00,675,Wunderground v.1.15,2013-03-04 20:29:00,
2013-03-04 14:35:00,47.5,39.3,29.70,North,352,18.0,22.0,73,0.00,,,0.00,649,Wunderground v.1.15,2013-03-04 20:35:00,
2013-03-04 14:41:00,47.7,39.1,29.69,North,357,19.0,20.0,72,0.00,,,0.00,628,Wunderground v.1.15,2013-03-04 20:41:00,
2013-03-04 14:47:00,48.0,39.4,29.70,NNW,329,18.0,19.0,72,0.00,,,0.00,622,Wunderground v.1.15,2013-03-04 20:47:00,
2013-03-04 14:53:00,47.8,38.8,29.70,NNW,340,17.0,19.0,71,0.00,,,0.00,599,Wunderground v.1.15,2013-03-04 20:53:00,
2013-03-04 14:59:00,47.5,38.6,29.70,NNW,333,17.0,19.0,71,0.00,,,0.00,592,Wunderground v.1.15,2013-03-04 20:59:00,
2013-03-04 15:05:00,48.0,39.8,29.71,NW,321,17.0,21.0,73,0.00,,,0.00,580,Wunderground v.1.15,2013-03-04 21:05:00,
2013-03-04 15:11:00,47.8,38.5,29.71,NNW,345,15.0,19.0,70,0.00,,,0.00,541,Wunderground v.1.15,2013-03-04 21:11:00,
2013-03-04 15:17:00,48.1,39.5,29.72,NNW,328,16.0,17.0,72,0.00,,,0.00,554,Wunderground v.1.15,2013-03-04 21:17:00,
2013-03-04 15:23:00,48.2,39.6,29.72,NNW,340,16.0,17.0,72,0.00,,,0.00,550,Wunderground v.1.15,2013-03-04 21:23:00,
2013-03-04 15:29:00,48.1,39.1,29.72,North,8,16.0,19.0,71,0.00,,,0.00,499,Wunderground v.1.15,2013-03-04 21:29:00,
2013-03-04 15:35:00,47.9,38.6,29.72,North,9,17.0,21.0,70,0.00,,,0.00,547,Wunderground v.1.15,2013-03-04 21:35:00,
2013-03-04 15:41:00,47.4,38.5,29.72,NNW,343,17.0,19.0,71,0.00,,,0.00,186,Wunderground v.1.15,2013-03-04 21:41:00,
2013-03-04 15:47:00,47.2,38.6,29.72,North,2,16.0,20.0,72,0.00,,,0.00,174,Wunderground v.1.15,2013-03-04 21:47:00,
2013-03-04 15:53:00,46.5,38.0,29.73,North,352,17.0,21.0,72,0.00,,,0.00,204,Wunderground v.1.15,2013-03-04 21:53:00,
2013-03-04 15:59:00,46.3,38.5,29.73,North,2,18.0,19.0,74,0.00,,,0.00,330,Wunderground v.1.15,2013-03-04 21:59:00,
2013-03-04 16:05:00,46.5,38.7,29.74,NNE,12,17.0,19.0,74,0.00,,,0.00,388,Wunderground v.1.15,2013-03-04 22:05:00,
2013-03-04 16:11:00,47.1,38.9,29.74,NNW,348,16.0,19.0,73,0.00,,,0.00,436,Wunderground v.1.15,2013-03-04 22:11:00,
2013-03-04 16:17:00,47.3,39.1,29.74,NNW,341,16.0,16.0,73,0.00,,,0.00,418,Wunderground v.1.15,2013-03-04 22:17:00,
2013-03-04 16:23:00,47.2,38.3,29.74,NNW,344,17.0,17.0,71,0.00,,,0.00,234,Wunderground v.1.15,2013-03-04 22:23:00,
2013-03-04 16:29:00,46.9,38.3,29.75,NNW,341,17.0,20.0,72,0.00,,,0.00,211,Wunderground v.1.15,2013-03-04 22:29:00,
2013-03-04 16:35:00,46.3,37.4,29.75,North,352,19.0,24.0,71,0.00,,,0.00,146,Wunderground v.1.15,2013-03-04 22:35:00,
2013-03-04 16:41:00,46.1,37.9,29.75,North,352,19.0,19.0,73,0.00,,,0.00,179,Wunderground v.1.15,2013-03-04 22:41:00,
2013-03-04 16:47:00,46.1,37.9,29.76,North,352,17.0,18.0,73,0.00,,,0.00,209,Wunderground v.1.15,2013-03-04 22:47:00,
2013-03-04 16:53:00,45.8,37.6,29.76,NNW,341,19.0,19.0,73,0.00,,,0.00,167,Wunderground v.1.15,2013-03-04 22:53:00,
2013-03-04 16:59:00,45.6,37.4,29.77,North,2,19.0,19.0,73,0.00,,,0.00,141,Wunderground v.1.15,2013-03-04 22:59:00,
2013-03-04 17:05:00,45.6,37.4,29.78,NNW,338,18.0,19.0,73,0.00,,,0.00,149,Wunderground v.1.15,2013-03-04 23:05:00,
2013-03-04 17:11:00,45.7,37.5,29.79,NNW,347,18.0,25.0,73,0.00,,,0.00,128,Wunderground v.1.15,2013-03-04 23:11:00,
2013-03-04 17:17:00,45.6,37.4,29.79,North,352,20.0,20.0,73,0.00,,,0.00,90,Wunderground v.1.15,2013-03-04 23:17:00,
2013-03-04 17:23:00,45.4,37.6,29.80,North,352,18.0,21.0,74,0.00,,,0.00,72,Wunderground v.1.15,2013-03-04 23:23:00,
2013-03-04 17:29:00,45.3,37.2,29.81,North,352,17.0,22.0,73,0.00,,,0.00,56,Wunderground v.1.15,2013-03-04 23:29:00,
2013-03-04 17:35:00,45.2,37.4,29.81,NNE,13,15.0,22.0,74,0.00,,,0.00,51,Wunderground v.1.15,2013-03-04 23:35:00,
2013-03-04 17:41:00,45.1,37.3,29.81,North,352,14.0,24.0,74,0.00,,,0.00,35,Wunderground v.1.15,2013-03-04 23:41:00,
2013-03-04 17:47:00,45.0,36.9,29.82,NW,321,15.0,15.0,73,0.00,,,0.00,26,Wunderground v.1.15,2013-03-04 23:47:00,
2013-03-04 17:53:00,44.9,37.1,29.82,NNW,343,12.0,15.0,74,0.00,,,0.00,23,Wunderground v.1.15,2013-03-04 23:53:00,
2013-03-04 17:59:00,44.7,36.6,29.83,NNW,328,13.0,16.0,73,0.00,,,0.00,14,Wunderground v.1.15,2013-03-04 23:59:00,
2013-03-04 18:05:00,44.5,36.7,29.83,NNW,338,14.0,19.0,74,0.00,,,0.00,12,Wunderground v.1.15,2013-03-05 00:05:00,
2013-03-04 18:11:00,44.3,36.5,29.83,NNW,334,15.0,15.0,74,0.00,,,0.00,5,Wunderground v.1.15,2013-03-05 00:11:00,
2013-03-04 18:17:00,44.2,36.4,29.84,NNW,333,16.0,17.0,74,0.00,,,0.00,5,Wunderground v.1.15,2013-03-05 00:17:00,
2013-03-04 18:25:00,43.9,36.1,29.84,NNW,339,19.0,19.0,74,0.00,,,0.00,0,Wunderground v.1.15,2013-03-05 00:25:00,
2013-03-04 18:31:00,43.6,35.9,29.84,NNW,343,17.0,20.0,74,0.00,,,0.00,0,Wunderground v.1.15,2013-03-05 00:31:00,
2013-03-04 18:37:00,43.5,35.8,29.85,NNW,340,17.0,19.0,74,0.00,,,0.00,0,Wunderground v.1.15,2013-03-05 00:37:00,
2013-03-04 18:43:00,43.4,35.7,29.86,NNW,339,17.0,21.0,74,0.00,,,0.00,0,Wunderground v.1.15,2013-03-05 00:43:00,
2013-03-04 18:49:00,43.4,35.7,29.86,NNW,337,18.0,22.0,74,0.00,,,0.00,0,Wunderground v.1.15,2013-03-05 00:49:00,
2013-03-04 18:55:00,43.4,35.7,29.86,NNW,343,20.0,24.0,74,0.00,,,0.00,0,Wunderground v.1.15,2013-03-05 00:55:00,
2013-03-04 19:01:00,43.3,35.6,29.87,NNW,335,22.0,30.0,74,0.00,,,0.00,0,Wunderground v.1.15,2013-03-05 01:01:00,
2013-03-04 19:07:00,43.2,35.5,29.87,North,352,23.0,25.0,74,0.00,,,0.00,0,Wunderground v.1.15,2013-03-05 01:07:00,
2013-03-04 19:13:00,43.1,35.4,29.88,NNW,347,24.0,25.0,74,0.00,,,0.00,0,Wunderground v.1.15,2013-03-05 01:13:00,
2013-03-04 19:19:00,42.9,35.2,29.88,North,2,22.0,26.0,74,0.00,,,0.00,0,Wunderground v.1.15,2013-03-05 01:19:00,
2013-03-04 19:25:00,42.7,35.0,29.88,North,357,21.0,29.0,74,0.00,,,0.00,0,Wunderground v.1.15,2013-03-05 01:25:00,
2013-03-04 19:31:00,42.6,34.9,29.88,North,357,23.0,28.0,74,0.00,,,0.00,0,Wunderground v.1.15,2013-03-05 01:31:00,
2013-03-04 19:37:00,42.4,35.0,29.89,NNW,346,21.0,21.0,75,0.00,,,0.00,0,Wunderground v.1.15,2013-03-05 01:37:00,
2013-03-04 19:43:00,42.4,34.7,29.90,North,2,20.0,21.0,74,0.00,,,0.00,0,Wunderground v.1.15,2013-03-05 01:43:00,
2013-03-04 19:49:00,42.3,34.6,29.90,North,357,20.0,23.0,74,0.00,,,0.00,0,Wunderground v.1.15,2013-03-05 01:49:00,
2013-03-04 19:55:00,42.4,34.7,29.91,North,352,22.0,24.0,74,0.00,,,0.00,0,Wunderground v.1.15,2013-03-05 01:55:00,
2013-03-04 20:01:00,42.4,34.4,29.91,North,357,22.0,29.0,73,0.00,,,0.00,0,Wunderground v.1.15,2013-03-05 02:01:00,
2013-03-04 20:07:00,42.3,34.3,29.91,North,357,23.0,27.0,73,0.00,,,0.00,0,Wunderground v.1.15,2013-03-05 02:07:00,
2013-03-04 20:13:00,42.2,34.2,29.92,North,357,24.0,28.0,73,0.00,,,0.00,0,Wunderground v.1.15,2013-03-05 02:13:00,
2013-03-04 20:19:00,42.0,36.0,29.93,North,2,22.0,23.0,79,0.00,,,0.00,0,Wunderground v.1.15,2013-03-05 02:19:00,
2013-03-04 20:25:00,41.9,34.2,29.94,North,352,21.0,31.0,74,0.00,,,0.00,0,Wunderground v.1.15,2013-03-05 02:25:00,
2013-03-04 20:31:00,41.9,34.2,29.95,North,352,23.0,27.0,74,0.00,,,0.00,0,Wunderground v.1.15,2013-03-05 02:31:00,
2013-03-04 20:37:00,41.9,34.2,29.96,North,6,22.0,28.0,74,0.00,,,0.00,0,Wunderground v.1.15,2013-03-05 02:37:00,
2013-03-04 20:43:00,41.8,34.1,29.97,North,352,22.0,28.0,74,0.00,,,0.00,0,Wunderground v.1.15,2013-03-05 02:43:00,
2013-03-04 20:49:00,41.6,34.3,29.97,NNW,348,22.0,22.0,75,0.00,,,0.00,0,Wunderground v.1.15,2013-03-05 02:49:00,
2013-03-04 20:55:00,41.4,34.1,29.97,North,352,22.0,30.0,75,0.00,,,0.01,0,Wunderground v.1.15,2013-03-05 02:55:00,
2013-03-04 21:01:00,41.3,34.0,29.98,North,2,22.0,26.0,75,0.00,,,0.01,0,Wunderground v.1.15,2013-03-05 03:01:00,
2013-03-04 21:07:00,41.3,34.0,30.00,North,2,22.0,22.0,75,0.00,,,0.01,0,Wunderground v.1.15,2013-03-05 03:07:00,
2013-03-04 21:13:00,41.4,34.1,30.00,NNW,336,21.0,22.0,75,0.00,,,0.01,0,Wunderground v.1.15,2013-03-05 03:13:00,
2013-03-04 21:19:00,41.4,34.1,30.01,NNW,337,22.0,28.0,75,0.00,,,0.01,0,Wunderground v.1.15,2013-03-05 03:19:00,
2013-03-04 21:25:00,41.3,34.3,30.01,North,2,23.0,28.0,76,0.00,,,0.01,0,Wunderground v.1.15,2013-03-05 03:25:00,
2013-03-04 21:31:00,41.1,34.4,30.02,North,8,22.0,22.0,77,0.00,,,0.02,0,Wunderground v.1.15,2013-03-05 03:31:00,
2013-03-04 21:37:00,40.8,34.5,30.02,NNW,338,20.0,20.0,78,0.00,,,0.02,0,Wunderground v.1.15,2013-03-05 03:37:00,
2013-03-04 21:43:00,40.7,34.4,30.02,North,7,20.0,25.0,78,0.00,,,0.02,0,Wunderground v.1.15,2013-03-05 03:43:00,
2013-03-04 21:49:00,40.7,34.4,30.03,NW,326,20.0,20.0,78,0.00,,,0.02,0,Wunderground v.1.15,2013-03-05 03:49:00,
2013-03-04 21:55:00,40.6,34.6,30.03,NNW,348,21.0,22.0,79,0.00,,,0.02,0,Wunderground v.1.15,2013-03-05 03:55:00,
2013-03-04 22:01:00,40.4,34.4,30.04,NNW,345,18.0,21.0,79,0.00,,,0.02,0,Wunderground v.1.15,2013-03-05 04:01:00,
2013-03-04 22:07:00,40.3,34.6,30.04,NNW,337,18.0,18.0,80,0.00,,,0.03,0,Wunderground v.1.15,2013-03-05 04:07:00,
2013-03-04 22:13:00,40.0,34.6,30.05,NW,325,17.0,19.0,81,0.13,,,0.04,0,Wunderground v.1.15,2013-03-05 04:13:00,
2013-03-04 22:19:00,39.7,34.7,30.05,NNW,346,18.0,23.0,82,0.12,,,0.05,0,Wunderground v.1.15,2013-03-05 04:19:00,
2013-03-04 22:25:00,39.3,34.3,30.05,NNW,346,20.0,23.0,82,0.10,,,0.06,0,Wunderground v.1.15,2013-03-05 04:25:00,
2013-03-04 22:31:00,39.1,34.4,30.04,NNW,342,19.0,29.0,83,0.06,,,0.06,0,Wunderground v.1.15,2013-03-05 04:31:00,
2013-03-04 22:37:00,39.0,34.3,30.04,North,2,18.0,18.0,83,0.04,,,0.06,0,Wunderground v.1.15,2013-03-05 04:37:00,
2013-03-04 22:43:00,38.9,34.2,30.03,North,2,18.0,20.0,83,0.00,,,0.06,0,Wunderground v.1.15,2013-03-05 04:43:00,
2013-03-04 22:49:00,39.0,34.3,30.04,North,357,21.0,25.0,83,0.00,,,0.06,0,Wunderground v.1.15,2013-03-05 04:49:00,
2013-03-04 22:55:00,39.1,34.4,30.04,North,352,19.0,25.0,83,0.00,,,0.06,0,Wunderground v.1.15,2013-03-05 04:55:00,
2013-03-04 23:01:00,39.2,34.5,30.04,North,2,17.0,20.0,83,0.00,,,0.06,0,Wunderground v.1.15,2013-03-05 05:01:00,
2013-03-04 23:05:00,39.2,34.5,30.04,North,2,17.0,20.0,83,0.00,,,0.06,0,Wunderground v.1.15,2013-03-05 05:05:00,
2013-03-04 23:11:00,39.2,34.5,30.04,NNW,348,14.0,16.0,83,0.00,,,0.06,0,Wunderground v.1.15,2013-03-05 05:11:00,
2013-03-04 23:13:00,39.2,34.2,30.04,NNW,338,14.0,16.0,82,0.00,,,0.06,0,Wunderground v.1.15,2013-03-05 05:13:00,
2013-03-04 23:19:00,39.2,34.2,30.05,NNW,341,15.0,21.0,82,0.00,,,0.06,0,Wunderground v.1.15,2013-03-05 05:19:00,
2013-03-04 23:25:00,39.3,34.3,30.05,NNW,330,16.0,21.0,82,0.00,,,0.06,0,Wunderground v.1.15,2013-03-05 05:25:00,
2013-03-04 23:31:00,39.3,34.3,30.04,NNW,333,13.0,17.0,82,0.00,,,0.06,0,Wunderground v.1.15,2013-03-05 05:31:00,
2013-03-04 23:37:00,39.3,34.3,30.04,NW,322,11.0,11.0,82,0.00,,,0.06,0,Wunderground v.1.15,2013-03-05 05:37:00,
2013-03-04 23:43:00,39.2,34.2,30.05,NW,322,12.0,16.0,82,0.00,,,0.06,0,Wunderground v.1.15,2013-03-05 05:43:00,
2013-03-04 23:49:00,39.2,34.2,30.06,NNW,333,12.0,17.0,82,0.00,,,0.06,0,Wunderground v.1.15,2013-03-05 05:49:00,
2013-03-04 23:55:00,39.1,34.1,30.07,NNW,332,13.0,17.0,82,0.00,,,0.06,0,Wunderground v.1.15,2013-03-05 05:55:00,